CAPE
1775 1803 1913 2135 2152 2008 1676 1689 2469 3326 3482 3215 2517 2771 2724 2690 2469 1496 1118 747 721 669 838 762 725 91 0 0 0 6 0 0 0 0 0 0 0 0 0 0 0 0 0
1686 1837 1871 1880 2355 2404 2319 1937 1908 2157 2727 3191 2918 2929 2841 2661 2079 1694 1307 1101 816 674 862 770 499 3 4 0 0 0 0 0 0 0 0 0 0 0 0 0 0 8 5
1599 1862 2096 2017 2220 2843 2888 2900 2699 2888 2852 2924 3091 3175 3144 2828 2034 1726 1430 1163 1020 1008 932 631 71 39 50 27 17 0 0 0 0 0 0 0 0 0 0 0 0 6 5
1502 2016 2088 2582 2574 2741 3230 3522 3580 3475 3525 3770 3813 3727 3555 2777 2460 2152 1565 1311 1108 1284 991 90 13 42 31 36 0 0 0 0 0 0 0 0 0 0 0 0 0 5 20
1706 1985 2280 2485 2984 3178 3308 3662 3939 4060 4108 4156 3975 3937 3507 2746 2550 2113 1565 1509 1283 1170 407 6 11 20 41 10 0 0 0 0 0 0 0 0 0 0 0 0 0 0 3
1473 2130 2402 2915 3312 3605 3865 4007 4168 4311 4431 4445 4048 3538 3434 3388 3128 2667 1705 1379 1396 949 385 43 32 47 24 0 0 0 0 0 0 0 0 0 0 0 0 0 0 0 0
1040 1616 2681 3337 3704 3838 4163 4373 4519 4589 4267 3715 3670 4104 3814 3497 2764 1987 1641 1513 1161 738 110 58 40 34 6 0 0 0 0 0 0 0 0 0 0 0 0 0 0 0 1
1281 1761 3092 3521 3851 4032 4243 4494 4624 4560 4098 3837 4165 4016 3509 2680 2320 1789 1285 1245 646 141 20 18 65 47 0 0 0 0 0 0 0 0 0 0 0 0 0 0 0 1 2
2373 3049 3376 3708 4022 4164 4337 4409 4186 4206 4000 3936 3827 3365 2705 2407 1955 1641 659 403 68 0 27 73 10 0 0 0 0 0 0 0 0 0 0 0 0 0 0 0 0 2 3
3465 3723 3831 3891 4164 4431 4494 4042 3737 3580 3461 3488 3392 3012 2551 2151 1687 1008 435 35 0 3 0 0 0 0 0 0 0 0 0 0 0 0 0 0 0 0 0 0 2 0 0
3875 3985 4069 4111 4133 4101 4043 3629 3496 3578 4021 3285 2638 2357 1904 1749 1188 621 55 0 0 0 0 0 0 0 0 0 0 0 0 0 0 0 0 0 0 0 0 0 0 0 0
4020 4035 4053 4002 4000 3996 3891 3770 3738 3109 2569 2443 2100 1702 1510 1202 648 239 30 0 0 0 0 0 0 0 0 0 0 0 0 0 0 0 0 0 0 0 0 0 0 2 8
4022 3987 4001 4069 4022 3731 3646 2832 2531 2459 2289 1904 1630 1441 1048 718 308 224 9 0 0 0 0 0 0 0 0 0 0 0 0 0 0 0 0 0 0 0 0 0 0 1 11
4061 3982 3734 3752 3695 2628 2542 2361 2163 1885 1660 1554 1278 922 529 291 294 20 6 1 0 0 0 0 0 0 0 0 0 0 0 0 0 0 0 0 0 0 0 0 0 0 0
3690 3596 3621 2607 2071 2152 2068 1921 1658 1510 1337 1107 849 523 337 344 119 10 0 3 18 4 0 0 0 0 0 0 0 0 0 0 0 0 0 0 0 0 0 0 0 0 0
2549 2005 1893 1906 1913 1484 1549 1306 1228 1071 1039 828 739 663 547 230 50 32 34 12 2 0 0 0 0 0 0 0 0 0 0 0 0 0 0 0 0 0 0 0 0 0 0
2166 2147 1998 2276 1573 1740 2051 1144 910 1029 1073 884 646 498 299 142 84 49 18 7 0 0 0 0 0 0 0 0 0 0 0 0 0 0 0 0 0 0 0 0 0 0 0
1983 1894 1713 1406 905 867 1300 915 1051 1032 452 80 36 114 82 74 43 31 9 0 0 0 0 0 0 0 0 0 0 0 0 0 0 0 0 0 0 0 0 0 0 0 0
1585 1648 1461 921 997 999 874 444 154 187 5 12 4 7 16 22 18 4 0 0 0 0 0 0 0 0 0 0 0 0 0 0 0 0 0 0 0 0 0 0 0 0 0
1335 1395 1113 782 624 317 69 9 0 10 24 10 1 7 6 7 9 0 0 0 0 0 0 0 0 0 0 0 0 0 0 0 0 0 0 0 0 0 0 0 0 0 0
0 1 0 69 228 141 2 0 0 6 15 2 0 0 4 10 0 0 0 0 0 0 0 0 0 0 0 0 0 0 0 0 0 0 0 0 0 0 0 0 0 0 0
0 0 0 0 2 81 73 33 14 30 25 0 0 0 1 0 0 0 0 0 0 0 0 0 0 0 0 0 0 0 0 0 0 0 0 0 0 0 0 0 0 0 0
0 0 15 23 118 116 146 72 60 61 22 0 0 0 0 0 0 0 0 0 0 0 0 0 0 0 0 0 0 0 0 0 0 0 0 0 0 0 0 0 0 0 0
0 0 0 0 14 76 56 50 63 36 18 0 4 0 0 0 0 0 0 0 0 0 0 0 0 0 0 0 0 0 0 0 0 0 0 0 0 0 0 0 0 0 0
0 0 0 0 16 37 50 58 63 34 29 8 3 5 1 0 0 0 0 3 0 0 0 0 0 0 0 0 0 0 0 0 0 0 0 0 0 0 0 0 0 0 0
0 0 5 14 42 59 68 86 72 63 57 21 18 8 8 0 0 0 0 0 0 0 0 0 0 0 0 0 0 0 0 0 0 0 0 0 0 0 0 0 0 0 0
CIN
-532 -495 -450 -413 -381 -357 -358 -388 -251 -105 -67 -41 -120 -56 -42 -43 -25 -31 -43 -162 -77 -74 -52 -22 -0 -18 -0 -0 -0 -21 -0 -0 -0 -0 -0 -0 -0 -0 -0 -0 -0 -0 -0
-587 -533 -524 -483 -405 -370 -375 -383 -356 -282 -138 -45 -26 -42 -42 -35 -37 -38 -44 -94 -69 -47 -7 -5 -0 -97 -70 -0 -0 -0 -0 -0 -0 -0 -0 -0 -0 -0 -0 -0 -0 -1 -0
-592 -561 -514 -506 -471 -367 -321 -272 -256 -211 -159 -116 -41 -16 -6 -10 -40 -55 -105 -116 -73 -25 -3 -1 -70 -98 -11 -11 -12 -0 -0 -0 -0 -0 -0 -0 -0 -0 -0 -0 -0 -0 -0
-655 -598 -561 -492 -458 -375 -271 -211 -174 -132 -70 -23 -6 -2 -4 -29 -45 -66 -106 -76 -39 -14 -0 -77 -90 -31 -24 -3 -0 -0 -0 -0 -0 -0 -0 -0 -0 -0 -0 -0 -0 -0 -0
-662 -596 -582 -504 -369 -279 -233 -182 -122 -68 -35 -11 -5 -1 -12 -41 -41 -66 -76 -61 -36 -13 -21 -122 -63 -44 -8 -7 -0 -0 -0 -0 -0 -0 -0 -0 -0 -0 -0 -0 -0 -0 -0
-666 -582 -493 -405 -314 -250 -184 -125 -79 -42 -16 -5 -3 -8 -24 -7 -3 -0 -11 -32 -17 -9 -4 -58 -49 -19 -20 -0 -0 -0 -0 -0 -0 -0 -0 -0 -0 -0 -0 -0 -0 -0 -0
-300 -549 -450 -357 -285 -230 -140 -78 -39 -11 -11 -10 -26 -12 -5 -0 -9 -32 -8 -0 -5 -21 -62 -61 -32 -35 -24 -0 -0 -0 -0 -0 -0 -0 -0 -0 -0 -0 -0 -0 -0 -0 -3
-358 -601 -438 -350 -244 -166 -100 -45 -11 -7 -6 -21 -13 -12 -16 -28 -20 -13 -16 -10 -39 -48 -84 -68 -34 -22 -0 -0 -0 -0 -0 -0 -0 -0 -0 -0 -0 -0 -0 -0 -0 -0 -0
-613 -471 -379 -273 -177 -105 -55 -24 -29 -11 -22 -52 -60 -64 -32 -32 -21 -14 -60 -85 -126 -0 -54 -23 -3 -0 -0 -0 -0 -0 -0 -0 -0 -0 -0 -0 -0 -0 -0 -0 -0 -2 -0
-422 -342 -270 -203 -110 -52 -37 -59 -49 -37 -39 -18 -0 -2 -10 -27 -12 -31 -34 -84 -0 -76 -0 -0 -0 -0 -0 -0 -0 -0 -0 -0 -0 -0 -0 -0 -0 -0 -0 -0 -0 -0 -0
-261 -206 -140 -69 -37 -30 -31 -46 -28 -8 -0 -0 -15 -12 -40 -8 -5 -26 -86 -0 -0 -0 -0 -0 -0 -0 -0 -0 -0 -0 -0 -0 -0 -0 -0 -0 -0 -0 -0 -0 -0 -0 -0
-141 -78 -46 -25 -16 -8 -4 -0 -0 -3 -49 -58 -30 -50 -40 -13 -29 -38 -62 -0 -0 -0 -0 -0 -0 -0 -0 -0 -0 -0 -0 -0 -0 -0 -0 -0 -0 -0 -0 -0 -0 -0 -0
-74 -39 -16 -3 -2 -0 -0 -19 -68 -69 -60 -72 -54 -39 -45 -37 -42 -14 -27 -0 -0 -0 -0 -0 -0 -0 -0 -0 -0 -0 -0 -0 -0 -0 -0 -0 -0 -0 -0 -0 -0 -0 -0
-31 -19 -10 -0 -0 -13 -27 -61 -85 -95 -86 -66 -42 -44 -49 -47 -24 -11 -7 -16 -0 -2 -0 -0 -0 -0 -0 -0 -0 -0 -0 -0 -0 -0 -0 -0 -0 -0 -0 -0 -0 -0 -0
-17 -3 -0 -42 -80 -84 -94 -93 -98 -87 -66 -56 -43 -58 -32 -16 -26 -14 -0 -15 -12 -11 -0 -0 -0 -0 -0 -0 -0 -0 -0 -0 -0 -0 -0 -0 -0 -0 -0 -0 -0 -0 -0
-36 -109 -124 -99 -85 -131 -116 -133 -106 -81 -44 -25 -15 -11 -8 -7 -76 -6 -0 -1 -0 -0 -0 -0 -0 -0 -0 -0 -0 -0 -0 -0 -0 -0 -0 -0 -0 -0 -0 -0 -0 -0 -0
-101 -74 -72 -52 -108 -78 -30 -91 -80 -24 -3 -0 -0 -3 -13 -13 -53 -2 -0 -11 -0 -0 -0 -0 -0 -0 -0 -0 -0 -0 -0 -0 -0 -0 -0 -0 -0 -0 -0 -0 -0 -0 -0
-85 -86 -94 -109 -144 -123 -44 -68 -22 -9 -22 -69 -63 -37 -55 -44 -3 -1 -0 -0 -0 -0 -0 -0 -0 -0 -0 -0 -0 -0 -0 -0 -0 -0 -0 -0 -0 -0 -0 -0 -0 -0 -0
-119 -96 -87 -116 -80 -45 -36 -77 -108 -16 -9 -22 -6 -4 -4 -0 -0 -3 -0 -0 -0 -0 -0 -0 -0 -0 -0 -0 -0 -0 -0 -0 -0 -0 -0 -0 -0 -0 -0 -0 -0 -0 -0
-89 -68 -79 -94 -88 -121 -183 -37 -0 -17 -21 -6 -1 -2 -1 -0 -0 -0 -0 -0 -0 -0 -0 -0 -0 -0 -0 -0 -0 -0 -0 -0 -0 -0 -0 -0 -0 -0 -0 -0 -0 -0 -0
-0 -124 -0 -259 -135 -125 -64 -1 -0 -27 -21 -21 -0 -0 -0 -0 -0 -0 -0 -0 -0 -0 -0 -0 -0 -0 -0 -0 -0 -0 -0 -0 -0 -0 -0 -0 -0 -0 -0 -0 -0 -0 -0
-0 -0 -0 -0 -14 -110 -104 -21 -16 -12 -12 -0 -0 -0 -0 -0 -0 -0 -0 -0 -0 -0 -0 -0 -0 -0 -0 -0 -0 -0 -0 -0 -0 -0 -0 -0 -0 -0 -0 -0 -0 -0 -0
-0 -0 -113 -123 -89 -82 -77 -65 -25 -11 -21 -0 -0 -0 -0 -0 -0 -0 -0 -0 -0 -0 -0 -0 -0 -0 -0 -0 -0 -0 -0 -0 -0 -0 -0 -0 -0 -0 -0 -0 -0 -0 -0
-0 -0 -0 -0 -16 -59 -27 -27 -26 -27 -15 -0 -2 -0 -0 -0 -0 -0 -0 -0 -0 -0 -0 -0 -0 -0 -0 -0 -0 -0 -0 -0 -0 -0 -0 -0 -0 -0 -0 -0 -0 -0 -0
-0 -0 -0 -0 -35 -22 -40 -24 -19 -24 -20 -10 -4 -1 -1 -0 -0 -0 -0 -0 -0 -0 -0 -0 -0 -0 -0 -0 -0 -0 -0 -0 -0 -0 -0 -0 -0 -0 -0 -0 -0 -0 -0
-0 -0 -4 -11 -20 -25 -33 -31 -28 -26 -10 -7 -10 -9 -0 -0 -0 -0 -0 -0 -0 -0 -0 -0 -0 -0 -0 -0 -0 -0 -0 -0 -0 -0 -0 -0 -0 -0 -0 -0 -0 -0 -0
Wind_Speed
25 26 26 24 25 25 24 23 23 21 20 20 20 26 34 42 46 39 53 64 59 51 58 62 59 nan nan nan nan nan nan nan nan nan nan nan nan nan nan nan nan nan nan
23 24 25 24 27 28 26 22 21 20 20 24 27 31 36 43 46 49 50 59 53 56 65 67 70 nan nan nan nan nan nan nan nan nan nan nan nan nan nan nan nan nan nan
22 25 24 22 25 27 27 26 27 26 25 26 31 36 40 47 45 51 57 63 53 56 66 60 nan nan nan nan nan nan nan nan nan nan nan nan nan nan nan nan nan nan nan
23 26 27 26 25 26 26 26 30 33 33 32 34 38 44 45 49 54 58 60 53 56 52 nan nan nan nan nan nan nan nan nan nan nan nan nan nan nan nan nan nan nan nan
35 29 25 25 27 29 30 31 32 33 36 36 42 39 44 47 54 57 56 50 58 57 57 nan nan nan nan nan nan nan nan nan nan nan nan nan nan nan nan nan nan nan nan
26 21 24 27 30 31 34 35 34 34 37 44 43 46 44 47 53 56 56 57 63 61 63 nan nan nan nan nan nan nan nan nan nan nan nan nan nan nan nan nan nan nan nan
23 26 29 32 33 37 38 37 36 38 41 46 50 49 53 49 51 57 65 51 58 64 67 nan nan nan nan nan nan nan nan nan nan nan nan nan nan nan nan nan nan nan nan
30 30 33 35 38 40 39 41 39 41 43 47 53 57 67 49 58 62 68 69 68 65 nan nan nan nan nan nan nan nan nan nan nan nan nan nan nan nan nan nan nan nan nan
36 35 33 32 35 39 39 40 35 41 45 52 58 68 53 53 62 64 68 67 nan nan nan nan nan nan nan nan nan nan nan nan nan nan nan nan nan nan nan nan nan nan nan
42 40 38 37 37 39 39 39 38 42 48 52 51 53 62 62 61 61 59 nan nan nan nan nan nan nan nan nan nan nan nan nan nan nan nan nan nan nan nan nan nan nan nan
45 45 43 41 40 38 40 40 44 49 50 49 47 50 59 60 60 59 nan nan nan nan nan nan nan nan nan nan nan nan nan nan nan nan nan nan nan nan nan nan nan nan nan
46 45 45 46 43 41 43 42 45 46 46 45 51 56 56 57 54 46 nan nan nan nan nan nan nan nan nan nan nan nan nan nan nan nan nan nan nan nan nan nan nan nan nan
47 43 44 44 40 38 38 39 40 42 45 47 54 55 53 49 47 49 nan nan nan nan nan nan nan nan nan nan nan nan nan nan nan nan nan nan nan nan nan nan nan nan nan
45 39 36 35 35 36 32 34 41 44 47 52 55 49 48 45 46 nan nan nan nan nan nan nan nan nan nan nan nan nan nan nan nan nan nan nan nan nan nan nan nan nan nan
38 36 34 34 37 38 38 36 41 43 48 55 49 46 46 44 41 nan nan nan nan nan nan nan nan nan nan nan nan nan nan nan nan nan nan nan nan nan nan nan nan nan nan
36 34 32 33 34 37 41 43 48 48 49 44 45 42 37 44 nan nan nan nan nan nan nan nan nan nan nan nan nan nan nan nan nan nan nan nan nan nan nan nan nan nan nan
35 34 33 34 33 36 42 47 47 43 48 41 35 41 45 48 nan nan nan nan nan nan nan nan nan nan nan nan nan nan nan nan nan nan nan nan nan nan nan nan nan nan nan
33 37 34 34 38 41 46 46 42 39 36 nan nan 41 nan nan nan nan nan nan nan nan nan nan nan nan nan nan nan nan nan nan nan nan nan nan nan nan nan nan nan nan nan
35 35 37 39 41 45 49 46 42 38 nan nan nan nan nan nan nan nan nan nan nan nan nan nan nan nan nan nan nan nan nan nan nan nan nan nan nan nan nan nan nan nan nan
38 44 43 44 47 49 nan nan nan nan nan nan nan nan nan nan nan nan nan nan nan nan nan nan nan nan nan nan nan nan nan nan nan nan nan nan nan nan nan nan nan nan nan
nan nan nan nan 43 41 nan nan nan nan nan nan nan nan nan nan nan nan nan nan nan nan nan nan nan nan nan nan nan nan nan nan nan nan nan nan nan nan nan nan nan nan nan
nan nan nan nan nan nan nan nan nan nan nan nan nan nan nan nan nan nan nan nan nan nan nan nan nan nan nan nan nan nan nan nan nan nan nan nan nan nan nan nan nan nan nan
nan nan nan nan 36 38 38 nan nan nan nan nan nan nan nan nan nan nan nan nan nan nan nan nan nan nan nan nan nan nan nan nan nan nan nan nan nan nan nan nan nan nan nan
nan nan nan nan nan nan nan nan nan nan nan nan nan nan nan nan nan nan nan nan nan nan nan nan nan nan nan nan nan nan nan nan nan nan nan nan nan nan nan nan nan nan nan
nan nan nan nan nan nan nan nan nan nan nan nan nan nan nan nan nan nan nan nan nan nan nan nan nan nan nan nan nan nan nan nan nan nan nan nan nan nan nan nan nan nan nan
nan nan nan nan nan nan nan nan nan nan nan nan nan nan nan nan nan nan nan nan nan nan nan nan nan nan nan nan nan nan nan nan nan nan nan nan nan nan nan nan nan nan nan
Wind_Direction
5 4 3 360 356 351 354 350 342 329 335 337 335 333 336 326 313 308 331 339 345 334 331 328 328 nan nan nan nan nan nan nan nan nan nan nan nan nan nan nan nan nan nan
353 352 352 349 349 351 351 349 339 338 327 331 329 333 332 328 308 334 333 334 335 340 330 318 322 nan nan nan nan nan nan nan nan nan nan nan nan nan nan nan nan nan nan
330 337 338 345 346 349 347 341 333 331 329 328 329 330 332 307 330 329 327 334 330 335 333 340 nan nan nan nan nan nan nan nan nan nan nan nan nan nan nan nan nan nan nan
317 319 333 335 333 329 323 326 326 326 328 324 324 327 316 320 326 325 329 330 336 335 339 nan nan nan nan nan nan nan nan nan nan nan nan nan nan nan nan nan nan nan nan
314 304 324 314 308 311 313 313 317 319 323 318 312 310 312 319 322 326 329 330 331 333 331 nan nan nan nan nan nan nan nan nan nan nan nan nan nan nan nan nan nan nan nan
301 307 289 290 292 302 304 307 314 314 307 305 314 314 317 310 315 325 320 325 328 331 332 nan nan nan nan nan nan nan nan nan nan nan nan nan nan nan nan nan nan nan nan
296 279 283 287 292 298 296 303 306 301 302 309 310 302 301 309 312 318 319 315 320 323 321 nan nan nan nan nan nan nan nan nan nan nan nan nan nan nan nan nan nan nan nan
284 281 282 288 290 293 294 300 296 300 306 304 299 301 306 309 320 317 316 319 319 317 nan nan nan nan nan nan nan nan nan nan nan nan nan nan nan nan nan nan nan nan nan
290 289 287 285 286 290 293 297 297 301 301 298 303 308 320 319 324 318 319 317 nan nan nan nan nan nan nan nan nan nan nan nan nan nan nan nan nan nan nan nan nan nan nan
289 290 293 294 290 288 293 294 286 291 289 293 296 316 320 323 321 320 317 nan nan nan nan nan nan nan nan nan nan nan nan nan nan nan nan nan nan nan nan nan nan nan nan
278 282 284 285 285 280 276 280 285 288 295 300 309 311 312 317 319 318 nan nan nan nan nan nan nan nan nan nan nan nan nan nan nan nan nan nan nan nan nan nan nan nan nan
275 272 271 273 279 282 281 282 286 290 295 302 306 308 310 315 317 316 nan nan nan nan nan nan nan nan nan nan nan nan nan nan nan nan nan nan nan nan nan nan nan nan nan
276 275 274 277 283 288 286 285 287 292 299 301 308 312 314 311 310 313 nan nan nan nan nan nan nan nan nan nan nan nan nan nan nan nan nan nan nan nan nan nan nan nan nan
279 279 281 282 276 278 280 284 294 297 296 305 311 311 316 315 316 nan nan nan nan nan nan nan nan nan nan nan nan nan nan nan nan nan nan nan nan nan nan nan nan nan nan
282 284 283 277 280 281 282 289 297 299 303 308 311 313 313 317 323 nan nan nan nan nan nan nan nan nan nan nan nan nan nan nan nan nan nan nan nan nan nan nan nan nan nan
283 284 285 288 290 291 292 293 283 292 296 296 312 315 311 315 nan nan nan nan nan nan nan nan nan nan nan nan nan nan nan nan nan nan nan nan nan nan nan nan nan nan nan
283 289 287 289 288 293 296 301 302 297 287 281 289 302 310 320 nan nan nan nan nan nan nan nan nan nan nan nan nan nan nan nan nan nan nan nan nan nan nan nan nan nan nan
281 284 287 291 293 299 300 301 302 302 302 nan nan 303 nan nan nan nan nan nan nan nan nan nan nan nan nan nan nan nan nan nan nan nan nan nan nan nan nan nan nan nan nan
284 286 292 293 295 297 300 298 297 298 nan nan nan nan nan nan nan nan nan nan nan nan nan nan nan nan nan nan nan nan nan nan nan nan nan nan nan nan nan nan nan nan nan
283 291 289 296 295 293 nan nan nan nan nan nan nan nan nan nan nan nan nan nan nan nan nan nan nan nan nan nan nan nan nan nan nan nan nan nan nan nan nan nan nan nan nan
nan nan nan nan 292 294 nan nan nan nan nan nan nan nan nan nan nan nan nan nan nan nan nan nan nan nan nan nan nan nan nan nan nan nan nan nan nan nan nan nan nan nan nan
nan nan nan nan nan nan nan nan nan nan nan nan nan nan nan nan nan nan nan nan nan nan nan nan nan nan nan nan nan nan nan nan nan nan nan nan nan nan nan nan nan nan nan
nan nan nan nan 295 295 297 nan nan nan nan nan nan nan nan nan nan nan nan nan nan nan nan nan nan nan nan nan nan nan nan nan nan nan nan nan nan nan nan nan nan nan nan
nan nan nan nan nan nan nan nan nan nan nan nan nan nan nan nan nan nan nan nan nan nan nan nan nan nan nan nan nan nan nan nan nan nan nan nan nan nan nan nan nan nan nan
nan nan nan nan nan nan nan nan nan nan nan nan nan nan nan nan nan nan nan nan nan nan nan nan nan nan nan nan nan nan nan nan nan nan nan nan nan nan nan nan nan nan nan
nan nan nan nan nan nan nan nan nan nan nan nan nan nan nan nan nan nan nan nan nan nan nan nan nan nan nan nan nan nan nan nan nan nan nan nan nan nan nan nan nan nan nan